Location: Breungeshain
(50.5000°N, 9.2000°E)
Time: 20:44:14
(UTC+00:00)

ISS - Pass Details

Date: 24 May 2017
Orbit: 401 x 408 km, 51.6° (Epoch: 25 June)

Event Time Altitude Azimuth Distance (km) Brightness Sun altitude
Rises 01:28:23 0° 286° (WNW) 2,337 -0.1 -13.3°
Reaches altitude 10° 01:30:29 10° 283° (WNW) 1,473 -1.2 -13.1°
Maximum altitude 01:33:45 65° 201° (SSW) 450 -3.9 -12.9°
Drops below altitude 10° 01:37:00 10° 119° (ESE) 1,462 -1.0 -12.6°
Sets 01:39:05 0° 116° (ESE) 2,318 0.1 -12.4°
